Location: Bli��� Lhota
(48.7570°N, 14.0120°E)
Time: 05:39:36
(UTC+00:00)

Spot 2 Rocket - Pass Details

Date: 18 September 2020
Orbit: 758 x 771 km, 98.6° (Epoch: 29 October)

Event Time Altitude Azimuth Distance (km) Brightness Sun altitude
Exits shadow 19:48:06 59° 56° (NE) 877 3.6 -25.3°
Drops below altitude 10° 19:52:49 10° 352° (N) 2,300 6.5 -25.9°
Sets 19:55:09 0° 349° (N) 3,230 7.4 -26.2°
